Location: Ferchesar
(52.6477°N, 12.4298°E)
Time: 19:53:30
(UTC+01:00)

A-11 Canister half - Visible Passes

Search period start: 04 March 2021 00:00
Search period end: 14 March 2021 00:00
Orbit: 1525 x 1684 km, 47.3° (Epoch: 03 March)

Date Brightness Start Highest point End Pass type
(mag) Time Alt. Az. Time Alt. Az. Time Alt. Az.
04 Mar 10.1 03:37:12 23° S 03:41:13 31° SE 03:49:02 10° E visible
04 Mar 9.4 05:35:37 10° WSW 05:44:54 57° SSE 05:53:57 10° E visible
05 Mar 10.1 03:16:49 25° SSE 03:19:38 30° SE 03:27:22 10° E visible
05 Mar 9.4 05:15:07 14° SW 05:23:17 56° SSE 05:32:20 10° E visible
06 Mar 10.1 02:56:22 27° SSE 02:58:03 28° SE 03:05:41 10° E visible
06 Mar 9.4 04:54:40 19° SW 05:01:40 55° SSE 05:10:42 10° E visible
07 Mar 10.1 02:35:52 27° SE 02:36:28 27° SE 02:43:59 10° E visible
07 Mar 9.4 04:34:09 24° SW 04:40:02 54° SSE 04:49:04 10° E visible
08 Mar 10.2 02:15:19 26° SE 02:15:19 26° SE 02:22:17 10° E visible
08 Mar 9.4 04:13:36 30° SW 04:18:25 53° SSE 04:27:26 10° E visible
09 Mar 10.3 01:54:44 24° ESE 01:54:44 24° ESE 02:00:35 10° E visible
09 Mar 9.4 03:53:01 35° SSW 03:56:48 52° SSE 04:05:49 10° E visible
09 Mar 9.3 05:51:38 10° W 06:01:06 65° S 06:10:17 10° ESE visible
10 Mar 10.4 01:34:07 22° ESE 01:34:07 22° ESE 01:38:52 10° E visible
10 Mar 9.3 03:32:24 41° SSW 03:35:11 51° SSE 03:44:10 10° E visible
10 Mar 9.2 05:30:40 13° WSW 05:39:28 65° S 05:48:41 10° ESE visible
11 Mar 10.5 01:13:28 19° ESE 01:13:28 19° ESE 01:17:09 10° E visible
11 Mar 9.3 03:11:44 45° S 03:13:33 50° SSE 03:22:33 10° E visible
11 Mar 9.2 05:10:01 17° WSW 05:17:49 65° S 05:27:03 10° ESE visible
12 Mar 10.7 00:52:48 17° ESE 00:52:48 17° ESE 00:55:24 10° E visible
12 Mar 9.3 02:51:04 47° S 02:51:56 49° SSE 03:00:55 10° E visible
12 Mar 9.1 04:49:20 21° WSW 04:56:11 65° S 05:05:26 10° E visible
13 Mar 10.8 00:32:05 14° E 00:32:05 14° E 00:33:39 10° E visible
13 Mar 9.3 02:30:22 47° SSE 02:30:22 47° SSE 02:39:16 10° E visible
13 Mar 9.1 04:28:38 26° WSW 04:34:33 65° S 04:43:49 10° E visible
